Vertical_Velocity
-1 -1 2 0 0 8 3 1 9 2 6 4 1 4 -2 4 0 -0 3 3 -3 -1 0 -2 0 -1 -2 -1 -1 -1 -3 -2 -0 0 -1 2 3 1 0 -2 -1 -2 -0
-2 -8 2 2 8 4 8 18 14 -6 5 8 6 -0 -1 -1 0 1 2 -2 -0 -1 -0 -3 -1 0 -1 -1 -0 -2 -2 -0 -1 -2 -1 -0 -0 2 -1 -1 3 -0 -1
-11 -9 33 6 3 40 3 2 1 9 8 3 -1 -1 -0 -3 2 0 -0 -1 2 1 -2 -1 -1 -1 -2 -2 -1 0 -1 -0 -1 1 1 -1 -1 2 -0 0 2 -1 0
-6 -6 0 8 -3 -16 -6 0 4 0 1 -5 -8 -3 1 -0 0 -2 -0 -2 -1 -2 -0 1 -1 -2 -4 -1 -2 -1 -2 1 2 -0 -1 -1 -0 -1 -1 0 -1 -2 -1
-20 -18 23 -5 -3 -7 -0 -4 -2 -1 -4 -5 -1 -1 1 0 -1 2 -2 -1 0 1 1 2 1 -1 -2 2 -1 -1 -3 1 1 -1 1 1 1 1 0 0 1 0 -0
-3 -7 10 10 1 -1 -2 -4 1 2 -1 -3 -2 2 1 0 -0 -2 -1 1 1 -1 -1 -1 -0 -1 -1 -1 1 -0 1 -0 -2 -0 -0 -1 1 1 -0 -2 -2 -2 -1
-6 -11 -1 -2 2 0 -1 -0 -2 -0 -1 -2 -0 3 2 3 -3 -3 -1 -0 0 0 -2 -1 -1 1 -2 -2 -1 -2 -1 -1 -0 1 0 0 0 -3 -1 -2 -2 -1 0
-4 -7 1 1 -2 1 1 0 2 1 2 2 1 -0 2 -1 -1 1 0 -0 -1 -0 -2 1 1 -2 -2 -1 -1 -3 -5 -3 -1 -2 0 0 1 1 0 1 2 -0 -1
-5 -4 -0 1 1 6 -2 -2 2 1 -0 1 -0 -1 -3 4 -1 -0 1 -1 1 -1 -2 1 -1 -0 -1 -1 0 -1 0 -5 -0 -2 -2 -0 -1 -3 -1 -1 -1 -0 -1
-3 0 1 -2 1 2 -2 1 2 -1 -3 1 1 -0 0 -5 -0 1 -2 -2 1 -3 -2 -2 -0 0 -2 0 -2 2 -4 -1 -1 -2 1 -2 -2 -1 -1 -1 -1 -0 -0
-1 1 -3 1 1 -0 0 4 1 -3 6 1 -0 -0 -3 2 -0 -3 1 -1 1 -0 -2 -2 -2 -3 -2 -1 -2 0 -1 -1 -0 -3 -2 0 -2 -1 0 -0 -1 -0 -0
4 5 4 -0 -2 -2 2 1 -0 -0 0 -1 1 -3 -0 -1 -1 -0 3 -2 -0 -1 -2 1 2 -1 3 0 -3 -0 -1 -0 -0 -1 -1 3 2 -1 -3 -3 -2 -1 -1
-0 2 -0 2 -0 2 3 -1 -1 1 -2 1 1 0 1 1 -0 -0 3 -1 -2 -1 -1 0 -4 -1 1 -0 1 -0 -4 -1 -1 -2 -2 -0 -1 -3 0 2 2 0 -1
1 -1 -1 -2 1 0 -1 2 -2 -3 -1 -2 1 0 1 3 2 -3 -2 -2 -0 -2 1 0 -1 -4 -0 2 -2 -0 -6 1 2 0 -1 0 0 -1 -2 -2 -1 0 1
-1 -1 -2 -1 -0 2 1 1 -2 -1 -1 0 -0 1 0 0 3 -3 -3 2 -3 0 0 -0 -2 -4 2 1 -1 -7 -4 -0 -1 0 0 1 -1 -1 -0 -2 -2 -2 -2
0 1 0 1 0 -2 -3 -2 -1 -3 1 -1 -0 -1 -3 -2 -3 2 -3 4 -0 1 -1 -1 -4 -1 2 -2 -4 -5 -1 -0 -0 -1 -1 -1 -0 -1 -1 0 0 -2 -1
1 -1 1 2 1 2 -0 0 1 3 4 1 1 2 -2 0 2 -2 6 2 -0 -0 1 -1 -0 3 1 -1 -1 -1 0 0 -1 1 0 1 -1 -2 -2 -2 -3 -2 -0
-1 1 -1 -0 -0 -1 1 3 4 2 0 -0 -1 1 1 1 2 2 0 -3 -2 -1 -2 -2 -1 -2 -1 -1 -1 -2 -1 0 -1 -1 -0 -1 -3 -3 -3 -2 -1 -2 -1
2 2 2 3 4 3 3 2 1 1 0 -0 -0 -0 -1 -0 -0 -1 -2 -2 -2 -2 -1 -2 -1 -0 -0 -0 1 1 -1 1 -1 -1 -2 -2 -0 -1 0 -1 -2 -2 -1
1 -0 -1 -0 1 0 -1 -0 1 1 -0 1 1 -0 1 1 0 -1 -1 -1 -2 -1 -0 -1 -2 -4 -2 1 1 1 -2 -1 -2 -2 -1 -1 1 -1 -3 -4 -2 -3 -3
-0 0 2 0 2 1 1 2 2 1 -1 1 -0 1 0 -1 -1 -1 -1 -1 -1 -1 -2 -2 -3 -1 -3 -2 1 2 -3 -3 -2 -3 -2 -3 -4 -3 -5 -4 -3 -3 -0
4 1 2 3 1 3 2 1 0 -2 -0 1 -1 -0 -0 1 0 -1 -1 -2 -1 -2 -2 -4 -3 -3 -3 -4 -5 -3 -3 -0 5 -2 -2 0 -1 0 -3 -3 -2 -3 -4
4 4 3 3 4 3 2 0 -1 2 1 0 -0 -0 1 0 -0 0 -0 -1 -1 -2 -4 -4 -3 -1 -2 -2 -4 -5 -11 -6 -8 2 4 4 -1 3 -4 -1 -0 -1 -2
6 5 3 1 3 2 0 1 2 2 0 -0 1 2 0 0 1 1 0 -1 -2 -3 -4 -3 -2 -1 -1 -2 -4 -1 -4 -6 -10 -11 9 3 -4 2 -5 1 -1 -1 -6
4 4 6 2 3 1 1 1 2 3 2 2 1 1 1 1 1 1 -0 -2 -2 -2 -2 -1 -3 -4 -3 -3 -3 -3 -2 -3 -3 -11 -5 -0 -1 -2 -6 -5 -6 -9 -10
4 2 2 3 3 2 3 3 2 3 3 3 2 1 -0 0 1 1 0 -1 -1 -2 -2 -3 -3 -3 -2 -2 -3 -4 -3 -6 -1 -10 -9 3 -8 10 1 1 -3 3 -1
Height
3145 3146 3146 3146 3146 3145 3143 3145 3146 3146 3145 3149 3152 3153 3154 3154 3154 3154 3154 3153 3153 3153 3152 3152 3151 3151 3150 3150 3150 3150 3150 3151 3151 3152 3152 3152 3152 3153 3153 3154 3154 3154 3155
3144 3146 3145 3144 3146 3145 3144 3143 3142 3144 3143 3147 3151 3152 3154 3154 3154 3154 3154 3153 3153 3153 3152 3152 3151 3150 3150 3149 3149 3149 3149 3150 3151 3152 3152 3153 3153 3153 3153 3154 3154 3154 3155
3143 3143 3142 3139 3144 3141 3143 3141 3143 3141 3146 3149 3151 3152 3153 3154 3154 3153 3153 3152 3152 3152 3151 3151 3151 3150 3150 3150 3149 3149 3149 3149 3149 3151 3152 3153 3153 3153 3153 3154 3154 3154 3155
3138 3138 3139 3138 3141 3141 3143 3142 3145 3146 3148 3149 3150 3150 3153 3153 3153 3152 3152 3152 3151 3151 3151 3150 3150 3150 3150 3149 3149 3149 3149 3148 3150 3150 3150 3151 3151 3152 3153 3153 3154 3154 3154
3134 3137 3137 3141 3140 3142 3142 3144 3146 3148 3147 3149 3150 3151 3152 3151 3152 3151 3152 3152 3151 3151 3151 3151 3151 3150 3150 3150 3149 3149 3150 3150 3150 3149 3149 3149 3150 3151 3151 3151 3151 3152 3153
3136 3135 3138 3139 3142 3143 3144 3147 3147 3148 3148 3149 3150 3150 3150 3150 3151 3151 3152 3152 3151 3151 3151 3150 3151 3150 3150 3149 3149 3149 3148 3148 3149 3149 3148 3149 3148 3148 3149 3149 3150 3150 3150
3135 3136 3138 3140 3142 3143 3144 3146 3147 3147 3148 3149 3148 3149 3149 3149 3150 3150 3150 3150 3150 3150 3150 3150 3149 3150 3150 3149 3148 3147 3147 3147 3147 3148 3148 3148 3147 3146 3145 3145 3146 3147 3147
3135 3136 3138 3139 3141 3142 3143 3145 3145 3146 3146 3146 3147 3148 3147 3148 3148 3148 3148 3148 3148 3149 3149 3149 3148 3148 3148 3148 3148 3147 3146 3146 3146 3146 3146 3147 3146 3146 3145 3144 3145 3145 3145
3135 3136 3137 3139 3140 3142 3143 3144 3144 3144 3145 3145 3145 3146 3145 3145 3146 3146 3146 3146 3146 3147 3147 3146 3147 3146 3145 3145 3146 3145 3144 3144 3143 3144 3144 3144 3144 3143 3143 3143 3142 3142 3142
3132 3134 3136 3137 3138 3139 3141 3142 3143 3142 3143 3143 3144 3144 3144 3144 3144 3144 3144 3144 3144 3144 3144 3143 3143 3143 3143 3142 3142 3142 3141 3141 3140 3140 3140 3140 3140 3140 3140 3139 3139 3139 3139
3130 3132 3133 3135 3137 3138 3138 3139 3139 3140 3140 3140 3141 3142 3141 3141 3141 3142 3141 3141 3140 3140 3140 3140 3139 3139 3139 3139 3138 3138 3138 3136 3136 3135 3136 3136 3136 3135 3135 3135 3135 3135 3134
3127 3128 3130 3132 3134 3135 3137 3136 3136 3137 3137 3138 3139 3139 3139 3138 3138 3138 3137 3138 3137 3137 3137 3136 3136 3135 3135 3135 3134 3134 3133 3132 3131 3130 3130 3130 3131 3130 3130 3130 3130 3130 3130
3122 3124 3127 3128 3130 3131 3132 3132 3133 3134 3134 3135 3135 3135 3136 3136 3135 3134 3135 3135 3134 3133 3132 3132 3131 3131 3131 3130 3130 3130 3129 3128 3128 3126 3125 3125 3125 3125 3123 3122 3122 3122 3122
3119 3121 3122 3124 3125 3126 3128 3129 3129 3130 3130 3130 3131 3132 3132 3131 3131 3132 3131 3131 3130 3130 3129 3128 3128 3128 3127 3126 3126 3125 3124 3123 3123 3121 3120 3119 3118 3117 3118 3117 3116 3116 3116
3114 3116 3117 3119 3120 3121 3123 3124 3124 3125 3125 3126 3127 3128 3127 3126 3127 3127 3126 3127 3127 3126 3124 3124 3124 3124 3123 3122 3122 3120 3119 3118 3116 3116 3114 3113 3111 3110 3109 3108 3108 3108 3108
3110 3111 3113 3114 3116 3117 3119 3121 3122 3122 3122 3122 3122 3123 3123 3123 3122 3122 3122 3121 3121 3120 3120 3120 3119 3119 3118 3117 3115 3113 3112 3111 3110 3109 3108 3105 3104 3102 3101 3100 3101 3100 3099
3107 3107 3109 3109 3110 3111 3112 3113 3114 3115 3117 3117 3117 3116 3116 3115 3116 3117 3116 3116 3116 3115 3114 3113 3113 3113 3112 3111 3109 3108 3106 3105 3104 3103 3101 3099 3096 3094 3093 3092 3092 3091 3089
3100 3102 3103 3104 3105 3106 3107 3108 3109 3110 3111 3110 3110 3110 3111 3110 3111 3111 3110 3110 3110 3109 3108 3108 3107 3106 3105 3105 3103 3100 3098 3097 3096 3094 3093 3091 3088 3086 3085 3083 3083 3082 3080
3093 3093 3095 3096 3098 3099 3100 3102 3103 3104 3105 3105 3105 3106 3106 3106 3106 3105 3105 3104 3104 3104 3103 3102 3100 3099 3099 3098 3097 3094 3091 3090 3089 3087 3084 3081 3080 3078 3076 3073 3072 3070 3069
3086 3086 3088 3089 3091 3092 3094 3095 3097 3098 3098 3099 3100 3100 3100 3099 3099 3099 3098 3098 3097 3097 3096 3095 3092 3090 3089 3089 3089 3088 3084 3081 3080 3079 3076 3072 3070 3068 3066 3063 3061 3059 3058
3076 3077 3079 3082 3084 3085 3087 3089 3090 3090 3091 3092 3092 3092 3093 3093 3093 3092 3092 3091 3090 3090 3089 3087 3085 3082 3080 3080 3080 3081 3077 3072 3070 3068 3065 3062 3060 3058 3055 3051 3049 3046 3045
3068 3070 3071 3073 3075 3077 3079 3081 3082 3082 3084 3085 3085 3085 3085 3086 3086 3085 3084 3084 3083 3081 3080 3079 3078 3075 3071 3068 3067 3067 3067 3066 3063 3059 3055 3053 3051 3047 3044 3039 3037 3033 3031
3057 3060 3062 3063 3065 3066 3069 3070 3072 3075 3076 3076 3077 3078 3078 3078 3078 3078 3077 3077 3075 3074 3073 3071 3069 3067 3064 3058 3054 3053 3049 3049 3050 3049 3046 3043 3039 3038 3032 3028 3023 3019 3015
3047 3049 3051 3053 3055 3057 3059 3062 3064 3067 3068 3069 3070 3071 3071 3071 3071 3071 3070 3070 3068 3067 3065 3062 3059 3057 3056 3052 3047 3043 3038 3033 3027 3023 3034 3035 3030 3025 3020 3016 3011 3008 3003
3035 3038 3041 3044 3045 3048 3051 3054 3055 3058 3060 3061 3062 3063 3063 3063 3063 3064 3063 3062 3061 3059 3057 3054 3051 3047 3044 3042 3039 3037 3032 3026 3020 3008 3000 3001 3004 3005 3005 3003 3001 2994 2987
3025 3027 3031 3034 3036 3039 3043 3045 3047 3049 3052 3053 3054 3054 3055 3056 3056 3056 3056 3055 3053 3051 3049 3047 3043 3040 3036 3032 3029 3024 3020 3017 3014 3006 2998 2993 2984 2983 2979 2976 2972 2973 2974